Overview Statistics Trail Chart Weather Telemetry Raw packets
 

This is the latest recevied weather packets stored in our database for station/object KG7FOQ-13. If no packets are shown the sender has not sent any weather packets the latest 10 day(s).

<< 109 110 111 112 113 114 115 >>
Time Temp. Humidity Pressure Rain* Wind** Luminosity Snow
1787782632 26.67° C 37% 1018.1 hPa 0 mm - - -
1787782088 26.67° C 37% 1017.8 hPa 0 mm - - -
1787782030 26.67° C 37% 1017.8 hPa 0 mm - - -
1787781730 27.22° C 41% 1017.9 hPa 0 mm - - -
1787781429 27.22° C 40% 1017.9 hPa 0 mm - - -
1787781128 27.22° C 41% 1018 hPa 0 mm - - -
1787780827 27.22° C 41% 1018 hPa 0 mm - - -
1787780528 27.22° C 40% 1018 hPa 0 mm - - -
1787780371 27.22° C 43% 1017.9 hPa 0 mm - - -
1787780227 27.22° C 43% 1017.9 hPa 0 mm - - -
1787779926 27.22° C 44% 1017.9 hPa 0 mm - - -
1787779626 27.78° C 40% 1018.1 hPa 0 mm - - -
1787779325 27.78° C 42% 1018.1 hPa 0 mm - - -
1787779025 27.78° C 40% 1018.2 hPa 0 mm - - -
1787778724 27.22° C 41% 1018.4 hPa 0 mm - - -
1787778424 27.22° C 40% 1018.4 hPa 0 mm - - -
1787778124 27.22° C 36% 1018.5 hPa 0 mm - - -
1787777857 27.22° C 42% 1018.6 hPa 0 mm - - -
1787777822 27.22° C 42% 1018.6 hPa 0 mm - - -
1787777522 26.67° C 43% 1018.5 hPa 0 mm - - -
1787777222 26.67° C 44% 1018.8 hPa 0 mm - - -
1787776921 27.22° C 44% 1018.8 hPa 0 mm - - -
1787776655 27.78° C 41% 1018.6 hPa 0 mm - - -
1787776619 27.78° C 41% 1018.6 hPa 0 mm - - -
1787776318 28.89° C 36% 1018.5 hPa 0 mm - - -

* Rain latest hour (hover to see other rain measurements)
** Current wind speed in m/s (hover to see current wind gust speed)